Find INTELSAT 501

NORAD ID: 12474 Int'l Des: 1981-050 Owner: INTEL Country: I-INT operational
HEOCIRCULAR

Current View

Loading 3D Globe...

About INTELSAT 501

Description loading...

Upcoming Passes

Passes for default location (London). Set your location on the main map for personalized predictions.

Altitude History

Loading altitude history...

Two-Line Element Set

1 12474U 81050A 26149.56014443 -.00000271 00000-0 00000-0 0 9992
2 12474 11.0008 324.8034 0002561 304.8791 335.9763 0.98854442137483
Epoch: May 29, 2026 • Age: 12 hours

Current Status

Altitude 36196.9 km
Velocity 3.06 km/s
Sub-Earth Point 11.00°N, 154.51°E
Launch Date May 23, 1981
Age 45 years
Type communications

Technical Details

Classification Payload
Mass 945.00 kg
Dry Mass 775.00 kg
Total Mass 1870.00 kg
Length 6.40 m
Diameter 2.00 m
Span 15.90 m
Shape Box + 2 Pan
Manufacturer FORDA
Bus Type FS INTELSAT 5
Phase Status Renamed
Owner/State INTEL/I-INT

Most Searched